M I D A S
Marine Information and Data Acquisition System
Tripno 1547 of the Zeeleeuw from 2008-03-07 07:16:49 to 2008-03-07 12:44:20
Back to CruiseResearch ActivitiesStationsMapUnderway DataData graphs

EquipmentUnitsComments
TimeDGPSUTC
LatitudeDGPSDM.mWGS84
LongitudeDGPSDM.mWGS84
SpeedMeteo Stationm/sRelative wind speed
DirectionMeteo StationdegRelative wind direction
TemperatureMeteo Stationdeg CelciusAir temperature
PressureMeteo StationPaAtmospheric pressure
HumidityMeteo Station%Relative humidity
Missing or incorrect values are displayed as -999
Metereological data collected by the RV Zeeleeuw from 2008-03-07 07:19:05 to 2008-03-07 12:52:52
Time Latitude Longitude Speed Direction Temperature Pressure Humidity
2008-03-07 07:20 51°13.68 2°55.891 -999 -999 -999 -999 -999
2008-03-07 07:21 51°13.689 2°55.8 -999 -999 -999 -999 -999
2008-03-07 07:22 51°13.685 2°55.74 -999 -999 -999 -999 -999
2008-03-07 07:23 51°13.697 2°55.74 -999 -999 -999 -999 -999
2008-03-07 07:24 51°13.746 2°55.709 -999 -999 -999 -999 -999
2008-03-07 07:25 51°13.842 2°55.622 -999 -999 -999 -999 -999
2008-03-07 07:26 51°13.978 2°55.519 -999 -999 -999 -999 -999
2008-03-07 07:27 51°14.126 2°55.406 -999 -999 -999 -999 -999
2008-03-07 07:28 51°14.261 2°55.269 -999 -999 -999 -999 -999
2008-03-07 07:29 51°14.37 2°55.068 -999 -999 -999 -999 -999
2008-03-07 07:30 51°14.486 2°54.83 -999 -999 -999 -999 -999
2008-03-07 07:31 51°14.654 2°54.663 -999 -999 -999 -999 -999
2008-03-07 07:32 51°14.849 2°54.673 -999 -999 -999 -999 -999
2008-03-07 07:33 51°15.041 2°54.705 -999 -999 -999 -999 -999
2008-03-07 07:34 51°15.228 2°54.729 -999 -999 -999 -999 -999
2008-03-07 07:35 51°15.417 2°54.769 -999 -999 -999 -999 -999
2008-03-07 07:36 51°15.607 2°54.824 -999 -999 -999 -999 -999
2008-03-07 07:37 51°15.783 2°54.933 -999 -999 -999 -999 -999
2008-03-07 07:38 51°15.897 2°55.163 -999 -999 -999 -999 -999
2008-03-07 07:39 51°15.986 2°55.427 -999 -999 -999 -999 -999
2008-03-07 07:40 51°16.079 2°55.687 -999 -999 -999 -999 -999
2008-03-07 07:41 51°16.161 2°55.956 -999 -999 -999 -999 -999
2008-03-07 07:42 51°16.25 2°56.219 -999 -999 -999 -999 -999
2008-03-07 07:43 51°16.338 2°56.484 -999 -999 -999 -999 -999
2008-03-07 07:44 51°16.427 2°56.749 -999 -999 -999 -999 -999
2008-03-07 07:45 51°16.514 2°57.017 -999 -999 -999 -999 -999
2008-03-07 07:46 51°16.605 2°57.281 -999 -999 -999 -999 -999
2008-03-07 07:47 51°16.694 2°57.548 -999 -999 -999 -999 -999
2008-03-07 07:48 51°16.787 2°57.813 -999 -999 -999 -999 -999
2008-03-07 07:49 51°16.875 2°58.082 -999 -999 -999 -999 -999
2008-03-07 07:50 51°16.964 2°58.352 -999 -999 -999 -999 -999
2008-03-07 07:51 51°17.059 2°58.616 -999 -999 -999 -999 -999
2008-03-07 07:52 51°17.147 2°58.885 -999 -999 -999 -999 -999
2008-03-07 07:53 51°17.238 2°59.154 -999 -999 -999 -999 -999
2008-03-07 07:54 51°17.327 2°59.412 -999 -999 -999 -999 -999
2008-03-07 07:55 51°17.406 2°59.637 -999 -999 -999 -999 -999
2008-03-07 07:56 51°17.474 2°59.832 -999 -999 -999 -999 -999
2008-03-07 07:57 51°17.539 3°0.024 -999 -999 -999 -999 -999
2008-03-07 07:58 51°17.605 3°0.216 -999 -999 -999 -999 -999
2008-03-07 07:59 51°17.671 3°0.409 -999 -999 -999 -999 -999
2008-03-07 08:00 51°17.737 3°0.602 -999 -999 -999 -999 -999
2008-03-07 08:01 51°17.803 3°0.793 -999 -999 -999 -999 -999
2008-03-07 08:02 51°17.862 3°0.971 -999 -999 -999 -999 -999
2008-03-07 08:03 51°17.916 3°1.131 -999 -999 -999 -999 -999
2008-03-07 08:04 51°17.968 3°1.289 -999 -999 -999 -999 -999
2008-03-07 08:05 51°18.02 3°1.445 -999 -999 -999 -999 -999
2008-03-07 08:06 51°18.073 3°1.601 -999 -999 -999 -999 -999
2008-03-07 08:07 51°18.117 3°1.741 -999 -999 -999 -999 -999
2008-03-07 08:08 51°18.143 3°1.833 -999 -999 -999 -999 -999
2008-03-07 08:09 51°18.164 3°1.901 -999 -999 -999 -999 -999
2008-03-07 08:10 51°18.183 3°1.96 -999 -999 -999 -999 -999
2008-03-07 08:11 51°18.208 3°2.031 -999 -999 -999 -999 -999
2008-03-07 08:12 51°18.237 3°2.112 -999 -999 -999 -999 -999
2008-03-07 08:13 51°18.268 3°2.198 -999 -999 -999 -999 -999
2008-03-07 08:14 51°18.321 3°2.342 -999 -999 -999 -999 -999
2008-03-07 08:15 51°18.383 3°2.523 -999 -999 -999 -999 -999
2008-03-07 08:16 51°18.426 3°2.723 -999 -999 -999 -999 -999
2008-03-07 08:17 51°18.456 3°2.922 -999 -999 -999 -999 -999
2008-03-07 08:18 51°18.497 3°3.116 -999 -999 -999 -999 -999
2008-03-07 08:19 51°18.547 3°3.305 -999 -999 -999 -999 -999
2008-03-07 08:20 51°18.595 3°3.492 -999 -999 -999 -999 -999
2008-03-07 08:21 51°18.627 3°3.666 -999 -999 -999 -999 -999
2008-03-07 08:22 51°18.605 3°3.789 -999 -999 -999 -999 -999
2008-03-07 08:23 51°18.591 3°3.822 -999 -999 -999 -999 -999
2008-03-07 08:24 51°18.59 3°3.812 -999 -999 -999 -999 -999
2008-03-07 08:25 51°18.589 3°3.801 -999 -999 -999 -999 -999
2008-03-07 08:26 51°18.589 3°3.789 -999 -999 -999 -999 -999
2008-03-07 08:27 51°18.59 3°3.777 -999 -999 -999 -999 -999
2008-03-07 08:28 51°18.591 3°3.765 -999 -999 -999 -999 -999
2008-03-07 08:29 51°18.591 3°3.752 -999 -999 -999 -999 -999
2008-03-07 08:30 51°18.591 3°3.741 -999 -999 -999 -999 -999
2008-03-07 08:31 51°18.59 3°3.731 -999 -999 -999 -999 -999
2008-03-07 08:32 51°18.589 3°3.724 -999 -999 -999 -999 -999
2008-03-07 08:33 51°18.588 3°3.717 -999 -999 -999 -999 -999
2008-03-07 08:34 51°18.587 3°3.71 -999 -999 -999 -999 -999
2008-03-07 08:35 51°18.585 3°3.704 -999 -999 -999 -999 -999
2008-03-07 08:36 51°18.582 3°3.698 -999 -999 -999 -999 -999
2008-03-07 08:37 51°18.581 3°3.691 -999 -999 -999 -999 -999
2008-03-07 08:38 51°18.579 3°3.684 -999 -999 -999 -999 -999
2008-03-07 08:39 51°18.577 3°3.679 -999 -999 -999 -999 -999
2008-03-07 08:40 51°18.577 3°3.673 -999 -999 -999 -999 -999
2008-03-07 08:41 51°18.576 3°3.669 -999 -999 -999 -999 -999
2008-03-07 08:42 51°18.576 3°3.666 -999 -999 -999 -999 -999
2008-03-07 08:43 51°18.575 3°3.661 -999 -999 -999 -999 -999
2008-03-07 08:44 51°18.576 3°3.657 -999 -999 -999 -999 -999
2008-03-07 08:45 51°18.577 3°3.653 -999 -999 -999 -999 -999
2008-03-07 08:46 51°18.578 3°3.649 -999 -999 -999 -999 -999
2008-03-07 08:47 51°18.577 3°3.657 -999 -999 -999 -999 -999
2008-03-07 08:48 51°18.573 3°3.68 -999 -999 -999 -999 -999
2008-03-07 08:49 51°18.573 3°3.708 -999 -999 -999 -999 -999
2008-03-07 08:50 51°18.572 3°3.731 -999 -999 -999 -999 -999
2008-03-07 08:51 51°18.57 3°3.745 -999 -999 -999 -999 -999
2008-03-07 08:52 51°18.567 3°3.753 -999 -999 -999 -999 -999
2008-03-07 08:53 51°18.564 3°3.754 -999 -999 -999 -999 -999
2008-03-07 08:54 51°18.56 3°3.753 -999 -999 -999 -999 -999
2008-03-07 08:55 51°18.557 3°3.75 -999 -999 -999 -999 -999
2008-03-07 08:56 51°18.556 3°3.746 -999 -999 -999 -999 -999
2008-03-07 08:57 51°18.558 3°3.74 -999 -999 -999 -999 -999
2008-03-07 08:58 51°18.561 3°3.735 -999 -999 -999 -999 -999
2008-03-07 08:59 51°18.567 3°3.778 -999 -999 -999 -999 -999
2008-03-07 09:00 51°18.614 3°3.793 -999 -999 -999 -999 -999
2008-03-07 09:01 51°18.646 3°3.712 -999 -999 -999 -999 -999
2008-03-07 09:02 51°18.649 3°3.562 -999 -999 -999 -999 -999
2008-03-07 09:03 51°18.627 3°3.354 -999 -999 -999 -999 -999
2008-03-07 09:04 51°18.585 3°3.138 -999 -999 -999 -999 -999
2008-03-07 09:05 51°18.531 3°2.923 -999 -999 -999 -999 -999
2008-03-07 09:06 51°18.477 3°2.709 -999 -999 -999 -999 -999
2008-03-07 09:07 51°18.425 3°2.493 -999 -999 -999 -999 -999
2008-03-07 09:08 51°18.373 3°2.277 -999 -999 -999 -999 -999
2008-03-07 09:09 51°18.321 3°2.061 -999 -999 -999 -999 -999
2008-03-07 09:10 51°18.269 3°1.847 -999 -999 -999 -999 -999
2008-03-07 09:11 51°18.208 3°1.641 -999 -999 -999 -999 -999
2008-03-07 09:12 51°18.149 3°1.437 -999 -999 -999 -999 -999
2008-03-07 09:13 51°18.09 3°1.235 -999 -999 -999 -999 -999
2008-03-07 09:14 51°18.03 3°1.029 -999 -999 -999 -999 -999
2008-03-07 09:15 51°17.97 3°0.825 -999 -999 -999 -999 -999
2008-03-07 09:16 51°17.911 3°0.619 -999 -999 -999 -999 -999
2008-03-07 09:17 51°17.852 3°0.412 -999 -999 -999 -999 -999
2008-03-07 09:18 51°17.785 3°0.188 -999 -999 -999 -999 -999
2008-03-07 09:19 51°17.717 2°59.96 -999 -999 -999 -999 -999
2008-03-07 09:20 51°17.65 2°59.73 -999 -999 -999 -999 -999
2008-03-07 09:21 51°17.583 2°59.501 -999 -999 -999 -999 -999
2008-03-07 09:22 51°17.516 2°59.275 -999 -999 -999 -999 -999
2008-03-07 09:23 51°17.45 2°59.049 -999 -999 -999 -999 -999
2008-03-07 09:24 51°17.383 2°58.823 -999 -999 -999 -999 -999
2008-03-07 09:25 51°17.316 2°58.599 -999 -999 -999 -999 -999
2008-03-07 09:26 51°17.249 2°58.374 -999 -999 -999 -999 -999
2008-03-07 09:27 51°17.184 2°58.149 -999 -999 -999 -999 -999
2008-03-07 09:28 51°17.143 2°57.884 -999 -999 -999 -999 -999
2008-03-07 09:29 51°17.098 2°57.578 -999 -999 -999 -999 -999
2008-03-07 09:30 51°17.071 2°57.26 -999 -999 -999 -999 -999
2008-03-07 09:31 51°17.06 2°56.937 -999 -999 -999 -999 -999
2008-03-07 09:32 51°17.043 2°56.613 -999 -999 -999 -999 -999
2008-03-07 09:33 51°17.023 2°56.29 -999 -999 -999 -999 -999
2008-03-07 09:34 51°17.004 2°55.965 -999 -999 -999 -999 -999
2008-03-07 09:35 51°16.985 2°55.64 -999 -999 -999 -999 -999
2008-03-07 09:36 51°16.966 2°55.315 -999 -999 -999 -999 -999
2008-03-07 09:37 51°16.948 2°54.991 -999 -999 -999 -999 -999
2008-03-07 09:38 51°16.929 2°54.668 -999 -999 -999 -999 -999
2008-03-07 09:39 51°16.91 2°54.343 -999 -999 -999 -999 -999
2008-03-07 09:40 51°16.892 2°54.018 -999 -999 -999 -999 -999
2008-03-07 09:41 51°16.872 2°53.693 -999 -999 -999 -999 -999
2008-03-07 09:42 51°16.885 2°53.37 -999 -999 -999 -999 -999
2008-03-07 09:43 51°16.926 2°53.057 -999 -999 -999 -999 -999
2008-03-07 09:44 51°17.036 2°52.79 -999 -999 -999 -999 -999
2008-03-07 09:45 51°17.21 2°52.651 -999 -999 -999 -999 -999
2008-03-07 09:46 51°17.405 2°52.58 -999 -999 -999 -999 -999
2008-03-07 09:47 51°17.6 2°52.512 -999 -999 -999 -999 -999
2008-03-07 09:48 51°17.797 2°52.458 -999 -999 -999 -999 -999
2008-03-07 09:49 51°17.99 2°52.386 -999 -999 -999 -999 -999
2008-03-07 09:50 51°18.185 2°52.317 -999 -999 -999 -999 -999
2008-03-07 09:51 51°18.379 2°52.258 -999 -999 -999 -999 -999
2008-03-07 09:52 51°18.575 2°52.202 -999 -999 -999 -999 -999
2008-03-07 09:53 51°18.771 2°52.15 -999 -999 -999 -999 -999
2008-03-07 09:54 51°18.967 2°52.12 -999 -999 -999 -999 -999
2008-03-07 09:55 51°19.13 2°52.11 -999 -999 -999 -999 -999
2008-03-07 09:56 51°19.221 2°52.142 -999 -999 -999 -999 -999
2008-03-07 09:57 51°19.264 2°52.191 -999 -999 -999 -999 -999
2008-03-07 09:58 51°19.267 2°52.198 -999 -999 -999 -999 -999
2008-03-07 09:59 51°19.27 2°52.216 -999 -999 -999 -999 -999
2008-03-07 10:00 51°19.269 2°52.249 -999 -999 -999 -999 -999
2008-03-07 10:01 51°19.273 2°52.292 -999 -999 -999 -999 -999
2008-03-07 10:02 51°19.277 2°52.332 -999 -999 -999 -999 -999
2008-03-07 10:03 51°19.278 2°52.365 -999 -999 -999 -999 -999
2008-03-07 10:04 51°19.275 2°52.393 -999 -999 -999 -999 -999
2008-03-07 10:05 51°19.272 2°52.414 -999 -999 -999 -999 -999
2008-03-07 10:06 51°19.272 2°52.434 -999 -999 -999 -999 -999
2008-03-07 10:07 51°19.264 2°52.476 -999 -999 -999 -999 -999
2008-03-07 10:08 51°19.287 2°52.553 -999 -999 -999 -999 -999
2008-03-07 10:09 51°19.342 2°52.528 -999 -999 -999 -999 -999
2008-03-07 10:10 51°19.346 2°52.436 -999 -999 -999 -999 -999
2008-03-07 10:11 51°19.326 2°52.317 -999 -999 -999 -999 -999
2008-03-07 10:12 51°19.298 2°52.211 -999 -999 -999 -999 -999
2008-03-07 10:13 51°19.295 2°52.2 -999 -999 -999 -999 -999
2008-03-07 10:14 51°19.304 2°52.222 -999 -999 -999 -999 -999
2008-03-07 10:15 51°19.311 2°52.247 -999 -999 -999 -999 -999
2008-03-07 10:16 51°19.316 2°52.272 -999 -999 -999 -999 -999
2008-03-07 10:17 51°19.322 2°52.299 -999 -999 -999 -999 -999
2008-03-07 10:18 51°19.328 2°52.325 -999 -999 -999 -999 -999
2008-03-07 10:19 51°19.336 2°52.353 -999 -999 -999 -999 -999
2008-03-07 10:20 51°19.343 2°52.379 -999 -999 -999 -999 -999
2008-03-07 10:21 51°19.352 2°52.406 -999 -999 -999 -999 -999
2008-03-07 10:22 51°19.361 2°52.435 -999 -999 -999 -999 -999
2008-03-07 10:23 51°19.37 2°52.463 -999 -999 -999 -999 -999
2008-03-07 10:24 51°19.379 2°52.491 -999 -999 -999 -999 -999
2008-03-07 10:25 51°19.39 2°52.52 -999 -999 -999 -999 -999
2008-03-07 10:26 51°19.401 2°52.55 -999 -999 -999 -999 -999
2008-03-07 10:27 51°19.412 2°52.584 -999 -999 -999 -999 -999
2008-03-07 10:28 51°19.423 2°52.618 -999 -999 -999 -999 -999
2008-03-07 10:29 51°19.435 2°52.652 -999 -999 -999 -999 -999
2008-03-07 10:30 51°19.452 2°52.678 -999 -999 -999 -999 -999
2008-03-07 10:31 51°19.471 2°52.654 -999 -999 -999 -999 -999
2008-03-07 10:32 51°19.455 2°52.606 -999 -999 -999 -999 -999
2008-03-07 10:33 51°19.416 2°52.56 -999 -999 -999 -999 -999
2008-03-07 10:34 51°19.382 2°52.512 -999 -999 -999 -999 -999
2008-03-07 10:35 51°19.345 2°52.423 -999 -999 -999 -999 -999
2008-03-07 10:36 51°19.305 2°52.308 -999 -999 -999 -999 -999
2008-03-07 10:37 51°19.281 2°52.244 -999 -999 -999 -999 -999
2008-03-07 10:38 51°19.276 2°52.229 -999 -999 -999 -999 -999
2008-03-07 10:39 51°19.285 2°52.239 -999 -999 -999 -999 -999
2008-03-07 10:40 51°19.3 2°52.257 -999 -999 -999 -999 -999
2008-03-07 10:41 51°19.321 2°52.272 -999 -999 -999 -999 -999
2008-03-07 10:42 51°19.34 2°52.283 -999 -999 -999 -999 -999
2008-03-07 10:43 51°19.354 2°52.287 -999 -999 -999 -999 -999
2008-03-07 10:44 51°19.361 2°52.286 -999 -999 -999 -999 -999
2008-03-07 10:45 51°19.358 2°52.271 -999 -999 -999 -999 -999
2008-03-07 10:46 51°19.356 2°52.257 -999 -999 -999 -999 -999
2008-03-07 10:47 51°19.363 2°52.254 -999 -999 -999 -999 -999
2008-03-07 10:48 51°19.37 2°52.257 -999 -999 -999 -999 -999
2008-03-07 10:49 51°19.369 2°52.266 -999 -999 -999 -999 -999
2008-03-07 10:50 51°19.357 2°52.271 -999 -999 -999 -999 -999
2008-03-07 10:51 51°19.34 2°52.273 -999 -999 -999 -999 -999
2008-03-07 10:52 51°19.323 2°52.282 -999 -999 -999 -999 -999
2008-03-07 10:53 51°19.315 2°52.284 -999 -999 -999 -999 -999
2008-03-07 10:54 51°19.317 2°52.287 -999 -999 -999 -999 -999
2008-03-07 10:55 51°19.321 2°52.284 -999 -999 -999 -999 -999
2008-03-07 10:56 51°19.324 2°52.289 -999 -999 -999 -999 -999
2008-03-07 10:57 51°19.325 2°52.298 -999 -999 -999 -999 -999
2008-03-07 10:58 51°19.322 2°52.316 -999 -999 -999 -999 -999
2008-03-07 10:59 51°19.315 2°52.336 -999 -999 -999 -999 -999
2008-03-07 11:00 51°19.314 2°52.347 -999 -999 -999 -999 -999
2008-03-07 11:01 51°19.319 2°52.351 -999 -999 -999 -999 -999
2008-03-07 11:02 51°19.323 2°52.351 -999 -999 -999 -999 -999
2008-03-07 11:03 51°19.319 2°52.347 -999 -999 -999 -999 -999
2008-03-07 11:04 51°19.324 2°52.332 -999 -999 -999 -999 -999
2008-03-07 11:05 51°19.329 2°52.315 -999 -999 -999 -999 -999
2008-03-07 11:06 51°19.331 2°52.295 -999 -999 -999 -999 -999
2008-03-07 11:07 51°19.33 2°52.275 -999 -999 -999 -999 -999
2008-03-07 11:08 51°19.325 2°52.26 -999 -999 -999 -999 -999
2008-03-07 11:09 51°19.324 2°52.256 -999 -999 -999 -999 -999
2008-03-07 11:10 51°19.337 2°52.264 -999 -999 -999 -999 -999
2008-03-07 11:11 51°19.348 2°52.276 -999 -999 -999 -999 -999
2008-03-07 11:12 51°19.349 2°52.269 -999 -999 -999 -999 -999
2008-03-07 11:13 51°19.344 2°52.243 -999 -999 -999 -999 -999
2008-03-07 11:14 51°19.328 2°52.22 -999 -999 -999 -999 -999
2008-03-07 11:15 51°19.327 2°52.23 -999 -999 -999 -999 -999
2008-03-07 11:16 51°19.349 2°52.273 -999 -999 -999 -999 -999
2008-03-07 11:17 51°19.377 2°52.332 -999 -999 -999 -999 -999
2008-03-07 11:18 51°19.403 2°52.394 -999 -999 -999 -999 -999
2008-03-07 11:19 51°19.429 2°52.457 -999 -999 -999 -999 -999
2008-03-07 11:20 51°19.455 2°52.523 -999 -999 -999 -999 -999
2008-03-07 11:21 51°19.482 2°52.587 -999 -999 -999 -999 -999
2008-03-07 11:22 51°19.51 2°52.652 -999 -999 -999 -999 -999
2008-03-07 11:23 51°19.546 2°52.705 -999 -999 -999 -999 -999
2008-03-07 11:24 51°19.583 2°52.69 -999 -999 -999 -999 -999
2008-03-07 11:25 51°19.56 2°52.637 -999 -999 -999 -999 -999
2008-03-07 11:26 51°19.564 2°52.568 -999 -999 -999 -999 -999
2008-03-07 11:27 51°19.587 2°52.488 -999 -999 -999 -999 -999
2008-03-07 11:28 51°19.629 2°52.418 -999 -999 -999 -999 -999
2008-03-07 11:29 51°19.685 2°52.373 -999 -999 -999 -999 -999
2008-03-07 11:30 51°19.727 2°52.339 -999 -999 -999 -999 -999
2008-03-07 11:31 51°19.731 2°52.275 -999 -999 -999 -999 -999
2008-03-07 11:32 51°19.704 2°52.201 -999 -999 -999 -999 -999
2008-03-07 11:33 51°19.676 2°52.148 -999 -999 -999 -999 -999
2008-03-07 11:34 51°19.647 2°52.093 -999 -999 -999 -999 -999
2008-03-07 11:35 51°19.616 2°52.029 -999 -999 -999 -999 -999
2008-03-07 11:36 51°19.583 2°51.965 -999 -999 -999 -999 -999
2008-03-07 11:37 51°19.554 2°51.903 -999 -999 -999 -999 -999
2008-03-07 11:38 51°19.522 2°51.837 -999 -999 -999 -999 -999
2008-03-07 11:39 51°19.491 2°51.772 -999 -999 -999 -999 -999
2008-03-07 11:40 51°19.461 2°51.704 -999 -999 -999 -999 -999
2008-03-07 11:41 51°19.429 2°51.634 -999 -999 -999 -999 -999
2008-03-07 11:42 51°19.4 2°51.574 -999 -999 -999 -999 -999
2008-03-07 11:43 51°19.371 2°51.511 -999 -999 -999 -999 -999
2008-03-07 11:44 51°19.339 2°51.444 -999 -999 -999 -999 -999
2008-03-07 11:45 51°19.307 2°51.377 -999 -999 -999 -999 -999
2008-03-07 11:46 51°19.277 2°51.308 -999 -999 -999 -999 -999
2008-03-07 11:47 51°19.249 2°51.239 -999 -999 -999 -999 -999
2008-03-07 11:48 51°19.224 2°51.182 -999 -999 -999 -999 -999
2008-03-07 11:49 51°19.204 2°51.13 -999 -999 -999 -999 -999
2008-03-07 11:50 51°19.18 2°51.073 -999 -999 -999 -999 -999
2008-03-07 11:51 51°19.155 2°51.017 -999 -999 -999 -999 -999
2008-03-07 11:52 51°19.13 2°50.955 -999 -999 -999 -999 -999
2008-03-07 11:53 51°19.104 2°50.89 -999 -999 -999 -999 -999
2008-03-07 11:54 51°19.077 2°50.829 -999 -999 -999 -999 -999
2008-03-07 11:55 51°19.044 2°50.771 -999 -999 -999 -999 -999
2008-03-07 11:56 51°19.01 2°50.713 -999 -999 -999 -999 -999
2008-03-07 11:57 51°18.974 2°50.651 -999 -999 -999 -999 -999
2008-03-07 11:58 51°18.936 2°50.589 -999 -999 -999 -999 -999
2008-03-07 11:59 51°18.903 2°50.528 -999 -999 -999 -999 -999
2008-03-07 12:00 51°18.878 2°50.492 -999 -999 -999 -999 -999
2008-03-07 12:01 51°18.869 2°50.462 -999 -999 -999 -999 -999
2008-03-07 12:02 51°18.9 2°50.428 -999 -999 -999 -999 -999
2008-03-07 12:03 51°18.964 2°50.454 -999 -999 -999 -999 -999
2008-03-07 12:04 51°19.01 2°50.491 -999 -999 -999 -999 -999
2008-03-07 12:05 51°19.046 2°50.529 -999 -999 -999 -999 -999
2008-03-07 12:06 51°19.078 2°50.568 -999 -999 -999 -999 -999
2008-03-07 12:07 51°19.106 2°50.61 -999 -999 -999 -999 -999
2008-03-07 12:08 51°19.132 2°50.657 -999 -999 -999 -999 -999
2008-03-07 12:09 51°19.16 2°50.703 -999 -999 -999 -999 -999
2008-03-07 12:10 51°19.222 2°50.75 -999 -999 -999 -999 -999
2008-03-07 12:11 51°19.248 2°50.895 -999 -999 -999 -999 -999
2008-03-07 12:12 51°19.189 2°50.973 -999 -999 -999 -999 -999
2008-03-07 12:13 51°19.079 2°51.005 -999 -999 -999 -999 -999
2008-03-07 12:14 51°18.952 2°51.061 -999 -999 -999 -999 -999
2008-03-07 12:15 51°18.816 2°51.141 -999 -999 -999 -999 -999
2008-03-07 12:16 51°18.682 2°51.221 -999 -999 -999 -999 -999
2008-03-07 12:17 51°18.548 2°51.314 -999 -999 -999 -999 -999
2008-03-07 12:18 51°18.416 2°51.408 -999 -999 -999 -999 -999
2008-03-07 12:19 51°18.283 2°51.501 -999 -999 -999 -999 -999
2008-03-07 12:20 51°18.15 2°51.591 -999 -999 -999 -999 -999
2008-03-07 12:21 51°18.016 2°51.68 -999 -999 -999 -999 -999
2008-03-07 12:22 51°17.879 2°51.771 -999 -999 -999 -999 -999
2008-03-07 12:23 51°17.746 2°51.869 -999 -999 -999 -999 -999
2008-03-07 12:24 51°17.607 2°51.981 -999 -999 -999 -999 -999
2008-03-07 12:25 51°17.469 2°52.086 -999 -999 -999 -999 -999
2008-03-07 12:26 51°17.323 2°52.195 -999 -999 -999 -999 -999
2008-03-07 12:27 51°17.169 2°52.306 -999 -999 -999 -999 -999
2008-03-07 12:28 51°17.011 2°52.404 -999 -999 -999 -999 -999
2008-03-07 12:29 51°16.834 2°52.49 -999 -999 -999 -999 -999
2008-03-07 12:30 51°16.649 2°52.563 -999 -999 -999 -999 -999
2008-03-07 12:31 51°16.468 2°52.676 -999 -999 -999 -999 -999
2008-03-07 12:32 51°16.293 2°52.83 -999 -999 -999 -999 -999
2008-03-07 12:33 51°16.118 2°52.983 -999 -999 -999 -999 -999
2008-03-07 12:34 51°15.949 2°53.15 -999 -999 -999 -999 -999
2008-03-07 12:35 51°15.778 2°53.318 -999 -999 -999 -999 -999
2008-03-07 12:36 51°15.608 2°53.486 -999 -999 -999 -999 -999
2008-03-07 12:37 51°15.437 2°53.652 -999 -999 -999 -999 -999
2008-03-07 12:38 51°15.265 2°53.813 -999 -999 -999 -999 -999
2008-03-07 12:39 51°15.093 2°53.969 -999 -999 -999 -999 -999
2008-03-07 12:40 51°14.922 2°54.129 -999 -999 -999 -999 -999
2008-03-07 12:41 51°14.763 2°54.332 -999 -999 -999 -999 -999
2008-03-07 12:42 51°14.62 2°54.586 -999 -999 -999 -999 -999
2008-03-07 12:43 51°14.479 2°54.825 -999 -999 -999 -999 -999
2008-03-07 12:44 51°14.352 2°55.097 -999 -999 -999 -999 -999
2008-03-07 12:45 51°14.218 2°55.317 -999 -999 -999 -999 -999
2008-03-07 12:46 51°14.09 2°55.436 -999 -999 -999 -999 -999
2008-03-07 12:47 51°13.973 2°55.522 -999 -999 -999 -999 -999
2008-03-07 12:48 51°13.865 2°55.604 -999 -999 -999 -999 -999
2008-03-07 12:49 51°13.773 2°55.686 -999 -999 -999 -999 -999
2008-03-07 12:50 51°13.713 2°55.781 -999 -999 -999 -999 -999
2008-03-07 12:51 51°13.679 2°55.879 -999 -999 -999 -999 -999
2008-03-07 12:52 51°13.667 2°55.943 -999 -999 -999 -999 -999